Weather History for Twenthe, Netherlands

Change the Weather History Date:

Friday, May 9, 2014

  Actual Average Record
Temperature  
Mean Temperature 52 °F -  
Max Temperature 59 °F 64 °F 78 °F (1998)
Min Temperature 45 °F 46 °F 35 °F (2004)
Degree Days  
Heating Degree Days 13    
Growing Degree Days 2 (Base 50)    
Moisture  
Dew Point 50 °F    
Average Humidity 83    
Maximum Humidity 96    
Minimum Humidity 58    
Precipitation  
Precipitation 0.24 in - - ()
Sea Level Pressure  
Sea Level Pressure 29.77 in    
Wind  
Wind Speed 12 mph ()    
Max Wind Speed 25 mph    
Max Gust Speed -    
Visibility 8.2 miles    
Events Rain , Thunderstorm    
Averages and records for this station are not official NWS values.
T = Trace of Precipitation, MM = Missing Value Source: Averaged Metar Reports

Daily Weather History Graph

Daily Weather History Graph

Search for Another Location

Airport:

Trip Planner

Search our weather history database for the weather conditions in past years. The results will help you decide how hot, cold, wet, or windy it might be!

Date:

Astronomy

May. 09, 2014 Rise Set
Actual Time 5:47 AM CEST 9:11 PM CEST
Civil Twilight 5:06 AM CEST 9:52 PM CEST
Nautical Twilight 4:11 AM CEST 10:48 PM CEST
Astronomical Twilight 2:54 AM CEST 12:07 AM CEST
Moon 3:12 PM CEST (5/9) 3:25 AM CEST (5/9)
Length of Visible Light 16h 45m
Length of Day
15h 23m
Waxing Gibbous, 71% of the Moon is Illuminated
May 9
Waxing Gibbous
May 14
Full
May 21
Last Quarter
May 28
New
Jun 5
First Quarter

Hourly Weather History & Observations

Time (CEST) Temp. Dew Point Humidity Pressure Visibility Wind Dir Wind Speed Gust Speed Precip Events Conditions
12:00 AM 54 °F 53 °F 95% 29.66 in 3 mi SW 11.2 mph - - Rain Rain
1:00 AM 55 °F 54 °F 94% 29.65 in 6 mi SSW 11.2 mph - - Rain Heavy Rain
2:00 AM 55 °F 54 °F 96% 29.65 in 7 mi SW 13.4 mph - - Rain Rain
3:00 AM 55 °F 54 °F 95% 29.67 in 7 mi WSW 11.2 mph - - Rain Rain
4:00 AM 55 °F 54 °F 95% 29.70 in 3 mi WSW 13.4 mph - - Rain Rain Showers
5:00 AM 55 °F 53 °F 90% 29.72 in 6 mi WSW 11.2 mph - - Rain Rain
6:00 AM 55 °F 53 °F 92% 29.73 in 4 mi SW 11.2 mph - - Rain Rain
7:00 AM 55 °F 53 °F 91% 29.75 in 4 mi SW 15.7 mph - - Rain Rain
8:00 AM 55 °F 53 °F 89% 29.77 in 5 mi SW 15.7 mph - - Rain Rain
9:00 AM 55 °F 53 °F 91% 29.77 in 4 mi SW 13.4 mph - - Rain Rain
10:00 AM 57 °F 53 °F 80% 29.77 in 6 mi SW 15.7 mph - - Rain Rain
11:00 AM 58 °F 51 °F 72% 29.78 in 9 mi SW 17.9 mph - -   Partly Cloudy
12:00 PM 57 °F 49 °F 66% 29.79 in 15 mi SW 22.4 mph - -   Partly Cloudy
1:00 PM 60 °F 49 °F 58% 29.78 in 15 mi SW 20.1 mph - -   Partly Cloudy
2:00 PM 57 °F 51 °F 72% 29.80 in 11 mi SW 20.1 mph - - Rain Light Rain Showers
3:00 PM 57 °F 50 °F 71% 29.79 in 6 mi SW 22.4 mph - - Rain Light Rain Showers
4:00 PM 52 °F 46 °F 74% 29.80 in 7 mi West 24.6 mph - - Rain , Thunderstorm Light Thunderstorms and Rain
5:00 PM 56 °F 47 °F 64% 29.79 in 19 mi SSW 13.4 mph - - Thunderstorm Light Thunderstorm
6:00 PM 49 °F 46 °F 87% 29.82 in 4 mi West 8.9 mph - - Rain , Thunderstorm Light Thunderstorms and Rain
7:00 PM 51 °F 46 °F 77% 29.81 in 19 mi West 6.7 mph - - Thunderstorm Light Thunderstorm
8:00 PM 45 °F 43 °F 88% 29.87 in 1 mi WNW 17.9 mph - - Rain , Thunderstorm Light Thunderstorms and Rain
9:00 PM 46 °F 44 °F 89% 29.86 in 28 mi SW 8.9 mph - - Thunderstorm Light Thunderstorm
10:00 PM 47 °F 44 °F 87% 29.88 in 25 mi WSW 8.9 mph - -   Partly Cloudy
11:00 PM 47 °F 44 °F 87% 29.89 in 19 mi SW 11.2 mph - -   Partly Cloudy